When you browse on this site, cookies collect data to enhance your experience and personalize the content and advertising you see.
Visit our Privacy Policy to learn more. By continuing to use the site, you agree to this use of cookies and data.
  • In Sweden
  • List of Countries
  • For 7 days
  • Water Temperature
  • Satellite Maps
  • Weather Map
  • Weather Widgets
  • user-avatar
    Login

    Hourly Weather Gaski

    Today, 16 July, Tuesday

    Time Temperature Precipitation Wind Pressure Humidity
    00:00 +14°C° 0 mm 2 mps 741 mmHg 71%
    01:00 +13°C° 0 mm 2 mps 741 mmHg 74%
    02:00 +13°C° 0 mm 2 mps 740 mmHg 81%
    03:00 +13°C° 0 mm 2 mps 740 mmHg 88%
    04:00 +12°C° 0 mm 3 mps 740 mmHg 95%
    05:00 +13°C° 0 mm 3 mps 740 mmHg 88%
    06:00 +14°C° 0 mm 4 mps 740 mmHg 80%
    07:00 +15°C° 0 mm 5 mps 740 mmHg 70%
    08:00 +15°C° 0 mm 5 mps 740 mmHg 70%
    09:00 +15°C° 0 mm 5 mps 740 mmHg 69%
    10:00 +15°C° 0 mm 5 mps 740 mmHg 69%
    11:00 +15°C° 0 mm 5 mps 740 mmHg 68%
    12:00 +15°C° 0 mm 5 mps 739 mmHg 67%
    13:00 +15°C° 0 mm 5 mps 739 mmHg 66%
    14:00 +16°C° 0 mm 6 mps 739 mmHg 67%
    15:00 +16°C° 0 mm 6 mps 739 mmHg 68%
    16:00 +16°C° 0 mm 6 mps 739 mmHg 69%
    17:00 +16°C° 0.1 mm 5 mps 739 mmHg 72%
    18:00 +17°C° 0.1 mm 4 mps 739 mmHg 74%
    19:00 +17°C° 0.1 mm 4 mps 739 mmHg 77%
    20:00 +15°C° 0 mm 4 mps 739 mmHg 80%
    21:00 +14°C° 0 mm 3 mps 739 mmHg 84%
    22:00 +13°C° 0 mm 3 mps 740 mmHg 87%
    23:00 +13°C° 0.1 mm 3 mps 740 mmHg 88%

    Tomorrow, 17 July, Wednesday

    Time Temperature Precipitation Wind Pressure Humidity
    00:00 +13°C° 0.1 mm 3 mps 739 mmHg 88%
    01:00 +13°C° 0.1 mm 3 mps 739 mmHg 89%
    02:00 +13°C° 0.1 mm 4 mps 739 mmHg 88%
    03:00 +13°C° 0.1 mm 4 mps 739 mmHg 87%
    04:00 +13°C° 0.1 mm 5 mps 739 mmHg 87%
    05:00 +13°C° 0 mm 5 mps 739 mmHg 84%
    06:00 +14°C° 0 mm 6 mps 739 mmHg 81%
    07:00 +15°C° 0 mm 6 mps 738 mmHg 79%
    08:00 +16°C° 0.1 mm 6 mps 739 mmHg 74%
    09:00 +16°C° 0.1 mm 6 mps 739 mmHg 68%
    10:00 +17°C° 0.1 mm 7 mps 739 mmHg 63%
    11:00 +18°C° 0.1 mm 7 mps 739 mmHg 59%
    12:00 +20°C° 0.1 mm 6 mps 739 mmHg 56%
    13:00 +21°C° 0.1 mm 6 mps 739 mmHg 52%
    14:00 +21°C° 0 mm 6 mps 739 mmHg 51%
    15:00 +21°C° 0 mm 6 mps 739 mmHg 50%
    16:00 +21°C° 0 mm 6 mps 739 mmHg 49%
    17:00 +20°C° 0 mm 4 mps 739 mmHg 55%
    18:00 +19°C° 0 mm 3 mps 739 mmHg 61%
    19:00 +18°C° 0 mm 2 mps 739 mmHg 67%
    20:00 +16°C° 0 mm 2 mps 740 mmHg 72%
    21:00 +15°C° 0 mm 1 mps 740 mmHg 77%
    22:00 +14°C° 0 mm 1 mps 740 mmHg 82%
    23:00 +12°C° 0 mm 0 mps 740 mmHg 84%

    Day after tomorrow, 18 July, Thursday

    Time Temperature Precipitation Wind Pressure Humidity
    00:00 +12°C° 0 mm 0 mps 740 mmHg 85%
    01:00 +12°C° 0 mm 0 mps 740 mmHg 87%
    02:00 +11°C° 0 mm 0 mps 740 mmHg 88%
    03:00 +11°C° 0 mm 0 mps 740 mmHg 89%
    04:00 +11°C° 0 mm 0 mps 740 mmHg 89%
    05:00 +12°C° 0 mm 0 mps 740 mmHg 84%
    06:00 +14°C° 0 mm 0 mps 741 mmHg 78%
    07:00 +15°C° 0 mm 0 mps 741 mmHg 73%
    08:00 +19°C° 0 mm 1 mps 741 mmHg 67%
    09:00 +20°C° 0 mm 1 mps 741 mmHg 62%
    10:00 +22°C° 0 mm 1 mps 741 mmHg 56%
    11:00 +22°C° 0 mm 1 mps 741 mmHg 53%
    12:00 +23°C° 0 mm 1 mps 741 mmHg 50%
    13:00 +23°C° 0 mm 2 mps 741 mmHg 48%
    14:00 +23°C° 0 mm 1 mps 740 mmHg 47%
    15:00 +23°C° 0 mm 1 mps 740 mmHg 45%
    16:00 +24°C° 0 mm 1 mps 740 mmHg 44%
    17:00 +23°C° 0 mm 1 mps 740 mmHg 49%
    18:00 +22°C° 0 mm 1 mps 740 mmHg 53%
    19:00 +19°C° 0 mm 0 mps 740 mmHg 58%
    20:00 +20°C° 0 mm 1 mps 741 mmHg 60%
    21:00 +18°C° 0 mm 1 mps 741 mmHg 63%
    22:00 +16°C° 0 mm 1 mps 741 mmHg 66%
    23:00 +16°C° 0 mm 1 mps 741 mmHg 68%

    19 July, Friday

    Time Temperature Precipitation Wind Pressure Humidity
    00:00 +15°C° 0 mm 1 mps 741 mmHg 71%
    01:00 +14°C° 0 mm 2 mps 741 mmHg 73%
    02:00 +14°C° 0 mm 2 mps 741 mmHg 75%
    03:00 +14°C° 0 mm 1 mps 741 mmHg 78%
    04:00 +14°C° 0 mm 1 mps 741 mmHg 81%
    05:00 +16°C° 0 mm 1 mps 741 mmHg 75%
    06:00 +19°C° 0 mm 1 mps 741 mmHg 69%
    07:00 +21°C° 0 mm 1 mps 741 mmHg 64%
    08:00 +22°C° 0 mm 1 mps 741 mmHg 58%
    09:00 +24°C° 0 mm 1 mps 741 mmHg 52%
    10:00 +25°C° 0 mm 1 mps 741 mmHg 47%
    11:00 +25°C° 0 mm 1 mps 741 mmHg 47%
    12:00 +26°C° 0 mm 1 mps 741 mmHg 47%
    13:00 +26°C° 0 mm 1 mps 741 mmHg 47%
    14:00 +26°C° 0 mm 1 mps 741 mmHg 47%
    15:00 +26°C° 0 mm 1 mps 741 mmHg 47%
    16:00 +24°C° 0 mm 0 mps 741 mmHg 47%
    17:00 +25°C° 0 mm 1 mps 741 mmHg 51%
    18:00 +24°C° 0 mm 1 mps 741 mmHg 55%
    19:00 +23°C° 0 mm 1 mps 741 mmHg 59%
    20:00 +22°C° 0.1 mm 1 mps 741 mmHg 63%
    21:00 +21°C° 0.1 mm 1 mps 741 mmHg 66%
    22:00 +20°C° 0.1 mm 1 mps 741 mmHg 70%
    23:00 +19°C° 0.1 mm 1 mps 741 mmHg 73%

    20 July, Saturday

    Time Temperature Precipitation Wind Pressure Humidity
    00:00 +19°C° 0.1 mm 1 mps 741 mmHg 77%
    01:00 +18°C° 0.1 mm 1 mps 741 mmHg 80%
    02:00 +18°C° 0 mm 1 mps 741 mmHg 81%
    03:00 +16°C° 0 mm 1 mps 742 mmHg 83%
    04:00 +16°C° 0 mm 1 mps 742 mmHg 84%
    05:00 +19°C° 0 mm 1 mps 742 mmHg 79%
    06:00 +21°C° 0 mm 1 mps 742 mmHg 73%
    07:00 +22°C° 0 mm 1 mps 742 mmHg 67%
    08:00 +24°C° 0.3 mm 1 mps 742 mmHg 62%
    09:00 +26°C° 0.3 mm 1 mps 743 mmHg 56%
    10:00 +27°C° 0.3 mm 1 mps 743 mmHg 50%
    11:00 +28°C° 0.1 mm 1 mps 743 mmHg 49%
    12:00 +28°C° 0.1 mm 2 mps 743 mmHg 47%
    13:00 +28°C° 0.1 mm 2 mps 743 mmHg 46%
    14:00 +28°C° 0 mm 2 mps 743 mmHg 46%
    15:00 +28°C° 0 mm 1 mps 743 mmHg 46%
    16:00 +28°C° 0 mm 1 mps 743 mmHg 46%
    17:00 +27°C° 0 mm 1 mps 743 mmHg 50%
    18:00 +26°C° 0 mm 1 mps 743 mmHg 55%
    19:00 +23°C° 0 mm 0 mps 743 mmHg 60%
    20:00 +24°C° 0 mm 1 mps 743 mmHg 62%
    21:00 +23°C° 0 mm 1 mps 743 mmHg 65%
    22:00 +22°C° 0 mm 1 mps 744 mmHg 68%
    23:00 +20°C° 0 mm 2 mps 744 mmHg 69%

    21 July, Sunday

    Time Temperature Precipitation Wind Pressure Humidity
    00:00 +20°C° 0 mm 2 mps 744 mmHg 69%
    01:00 +20°C° 0 mm 2 mps 744 mmHg 70%
    02:00 +19°C° 0 mm 2 mps 744 mmHg 72%
    03:00 +19°C° 0 mm 2 mps 744 mmHg 73%
    04:00 +19°C° 0 mm 2 mps 743 mmHg 75%
    05:00 +20°C° 0 mm 2 mps 744 mmHg 72%
    06:00 +22°C° 0 mm 3 mps 744 mmHg 68%
    07:00 +24°C° 0 mm 3 mps 744 mmHg 65%
    08:00 +26°C° 0 mm 3 mps 744 mmHg 60%
    09:00 +28°C° 0 mm 3 mps 744 mmHg 54%
    10:00 +29°C° 0 mm 3 mps 744 mmHg 49%
    11:00 +29°C° 0 mm 3 mps 744 mmHg 50%
    12:00 +29°C° 0 mm 3 mps 744 mmHg 51%
    13:00 +29°C° 0 mm 3 mps 744 mmHg 52%
    14:00 +28°C° 0.5 mm 4 mps 744 mmHg 58%
    15:00 +27°C° 0.5 mm 6 mps 743 mmHg 63%
    16:00 +26°C° 0.5 mm 7 mps 743 mmHg 69%
    17:00 +23°C° 1.7 mm 6 mps 743 mmHg 76%
    18:00 +22°C° 1.7 mm 5 mps 743 mmHg 82%
    19:00 +20°C° 1.7 mm 4 mps 743 mmHg 89%
    20:00 +20°C° 1.2 mm 4 mps 743 mmHg 91%
    21:00 +19°C° 1.2 mm 3 mps 743 mmHg 93%
    22:00 +19°C° 1.2 mm 2 mps 744 mmHg 95%
    23:00 +19°C° 0 mm 2 mps 744 mmHg 96%
    Show more